Time,TemperatureF,DewpointF,PressureIn,WindDirection,WindDirectionDegrees,WindSpeedMPH,WindSpeedGustMPH,Humidity,HourlyPrecipIn,Conditions,Clouds,dailyrainin,SoftwareType,DateUTC
2013-03-21 00:02:00,33.0,30.0,29.69,North,-999,-999.0,-999.0,90,-99.99,,,-99.99,,2013-03-21 06:02:00,
2013-03-21 00:12:00,34.0,31.0,29.68,North,-999,-999.0,-999.0,88,-99.99,,,-99.99,,2013-03-21 06:12:00,
2013-03-21 00:22:00,34.0,31.0,29.68,North,-999,-999.0,-999.0,88,-99.99,,,-99.99,,2013-03-21 06:22:00,
2013-03-21 00:32:00,33.0,30.0,29.68,North,-999,-999.0,-999.0,90,-99.99,,,-99.99,,2013-03-21 06:32:00,
2013-03-21 00:42:00,33.0,30.0,29.68,North,-999,-999.0,-999.0,90,-99.99,,,-99.99,,2013-03-21 06:42:00,
2013-03-21 00:52:00,32.0,30.0,29.67,North,-999,-999.0,-999.0,92,-99.99,,,-99.99,,2013-03-21 06:52:00,
2013-03-21 01:02:00,32.0,30.0,29.67,North,-999,-999.0,-999.0,93,-99.99,,,-99.99,,2013-03-21 07:02:00,
2013-03-21 01:12:00,32.0,30.0,29.67,North,-999,-999.0,-999.0,93,-99.99,,,-99.99,,2013-03-21 07:12:00,
2013-03-21 01:22:00,32.0,31.0,29.67,North,-999,-999.0,-999.0,95,-99.99,,,-99.99,,2013-03-21 07:22:00,
2013-03-21 01:32:00,31.0,30.0,29.67,North,-999,-999.0,-999.0,96,-99.99,,,-99.99,,2013-03-21 07:32:00,
2013-03-21 01:42:00,31.0,30.0,29.67,North,-999,-999.0,-999.0,96,-99.99,,,-99.99,,2013-03-21 07:42:00,
2013-03-21 01:52:00,31.0,30.0,29.66,North,-999,-999.0,-999.0,96,-99.99,,,-99.99,,2013-03-21 07:52:00,
2013-03-21 02:02:00,31.0,30.0,29.65,North,-999,-999.0,-999.0,96,-99.99,,,-99.99,,2013-03-21 08:02:00,
2013-03-21 02:12:00,31.0,30.0,29.65,North,-999,-999.0,-999.0,96,-99.99,,,-99.99,,2013-03-21 08:12:00,
2013-03-21 02:22:00,31.0,30.0,29.65,North,-999,-999.0,-999.0,97,-99.99,,,-99.99,,2013-03-21 08:22:00,
2013-03-21 02:32:00,31.0,30.0,29.65,North,-999,-999.0,-999.0,97,-99.99,,,-99.99,,2013-03-21 08:32:00,
2013-03-21 02:42:00,31.0,30.0,29.65,North,-999,-999.0,-999.0,97,-99.99,,,-99.99,,2013-03-21 08:42:00,
2013-03-21 02:52:00,31.0,30.0,29.64,North,-999,-999.0,-999.0,96,-99.99,,,-99.99,,2013-03-21 08:52:00,
2013-03-21 03:02:00,31.0,30.0,29.64,North,-999,-999.0,-999.0,96,-99.99,,,-99.99,,2013-03-21 09:02:00,
2013-03-21 03:11:00,31.0,30.0,29.64,North,-999,-999.0,-999.0,96,-99.99,,,-99.99,,2013-03-21 09:11:00,
2013-03-21 03:21:00,31.0,30.0,29.63,North,-999,-999.0,-999.0,96,-99.99,,,-99.99,,2013-03-21 09:21:00,
2013-03-21 03:33:00,31.0,30.0,29.63,North,-999,-999.0,-999.0,95,-99.99,,,-99.99,,2013-03-21 09:33:00,
2013-03-21 03:43:00,31.0,30.0,29.63,North,-999,-999.0,-999.0,95,-99.99,,,-99.99,,2013-03-21 09:43:00,
2013-03-21 03:53:00,31.0,30.0,29.62,North,-999,-999.0,-999.0,96,-99.99,,,-99.99,,2013-03-21 09:53:00,
2013-03-21 04:02:00,31.0,30.0,29.61,North,-999,-999.0,-999.0,96,-99.99,,,-99.99,,2013-03-21 10:02:00,
2013-03-21 04:12:00,31.0,30.0,29.61,North,-999,-999.0,-999.0,96,-99.99,,,-99.99,,2013-03-21 10:12:00,
2013-03-21 04:22:00,31.0,30.0,29.61,North,-999,-999.0,-999.0,96,-99.99,,,-99.99,,2013-03-21 10:22:00,
2013-03-21 04:32:00,31.0,29.0,29.61,North,-999,-999.0,-999.0,94,-99.99,,,-99.99,,2013-03-21 10:32:00,
2013-03-21 04:42:00,31.0,29.0,29.61,North,-999,-999.0,-999.0,94,-99.99,,,-99.99,,2013-03-21 10:42:00,
2013-03-21 04:53:00,31.0,29.0,29.60,North,-999,-999.0,-999.0,94,-99.99,,,-99.99,,2013-03-21 10:53:00,
2013-03-21 05:02:00,31.0,29.0,29.60,North,-999,-999.0,-999.0,94,-99.99,,,-99.99,,2013-03-21 11:02:00,
2013-03-21 05:12:00,31.0,29.0,29.60,North,-999,-999.0,-999.0,94,-99.99,,,-99.99,,2013-03-21 11:12:00,
2013-03-21 05:22:00,31.0,29.0,29.60,North,-999,-999.0,-999.0,94,-99.99,,,-99.99,,2013-03-21 11:22:00,
2013-03-21 05:32:00,31.0,30.0,29.61,North,-999,-999.0,-999.0,95,-99.99,,,-99.99,,2013-03-21 11:32:00,
2013-03-21 05:42:00,31.0,30.0,29.61,North,-999,-999.0,-999.0,95,-99.99,,,-99.99,,2013-03-21 11:42:00,
2013-03-21 05:53:00,31.0,30.0,29.62,North,-999,-999.0,-999.0,95,-99.99,,,-99.99,,2013-03-21 11:53:00,
2013-03-21 06:02:00,30.0,29.0,29.63,North,-999,-999.0,-999.0,95,-99.99,,,-99.99,,2013-03-21 12:02:00,
2013-03-21 06:12:00,30.0,29.0,29.63,North,-999,-999.0,-999.0,95,-99.99,,,-99.99,,2013-03-21 12:12:00,
2013-03-21 06:22:00,29.0,28.0,29.64,North,-999,-999.0,-999.0,95,-99.99,,,-99.99,,2013-03-21 12:22:00,
2013-03-21 06:32:00,29.0,28.0,29.64,North,-999,-999.0,-999.0,96,-99.99,,,-99.99,,2013-03-21 12:32:00,
2013-03-21 06:42:00,29.0,28.0,29.64,North,-999,-999.0,-999.0,96,-99.99,,,-99.99,,2013-03-21 12:42:00,
2013-03-21 06:52:00,28.0,27.0,29.65,North,-999,-999.0,-999.0,95,-99.99,,,-99.99,,2013-03-21 12:52:00,
2013-03-21 07:02:00,28.0,27.0,29.65,North,-999,-999.0,-999.0,94,-99.99,,,-99.99,,2013-03-21 13:02:00,
2013-03-21 07:12:00,28.0,27.0,29.65,North,-999,-999.0,-999.0,94,-99.99,,,-99.99,,2013-03-21 13:12:00,
2013-03-21 07:22:00,27.0,26.0,29.65,North,-999,-999.0,-999.0,95,-99.99,,,-99.99,,2013-03-21 13:22:00,
2013-03-21 07:32:00,27.0,26.0,29.65,North,-999,-999.0,-999.0,94,-99.99,,,-99.99,,2013-03-21 13:32:00,
2013-03-21 07:42:00,27.0,26.0,29.65,North,-999,-999.0,-999.0,94,-99.99,,,-99.99,,2013-03-21 13:42:00,
2013-03-21 07:52:00,26.0,24.0,29.65,North,-999,-999.0,-999.0,91,-99.99,,,-99.99,,2013-03-21 13:52:00,
2013-03-21 08:02:00,25.0,22.0,29.66,North,-999,-999.0,-999.0,88,-99.99,,,-99.99,,2013-03-21 14:02:00,
2013-03-21 08:11:00,25.0,22.0,29.66,North,-999,-999.0,-999.0,88,-99.99,,,-99.99,,2013-03-21 14:11:00,
2013-03-21 08:21:00,24.0,21.0,29.67,North,-999,-999.0,-999.0,88,-99.99,,,-99.99,,2013-03-21 14:21:00,
2013-03-21 08:32:00,24.0,20.0,29.67,North,-999,-999.0,-999.0,86,-99.99,,,-99.99,,2013-03-21 14:32:00,
2013-03-21 08:42:00,24.0,20.0,29.67,North,-999,-999.0,-999.0,86,-99.99,,,-99.99,,2013-03-21 14:42:00,
2013-03-21 08:52:00,24.0,20.0,29.67,North,-999,-999.0,-999.0,86,-99.99,,,-99.99,,2013-03-21 14:52:00,
2013-03-21 09:02:00,24.0,20.0,29.68,North,-999,-999.0,-999.0,84,-99.99,,,-99.99,,2013-03-21 15:02:00,
2013-03-21 09:12:00,24.0,20.0,29.68,North,-999,-999.0,-999.0,84,-99.99,,,-99.99,,2013-03-21 15:12:00,
2013-03-21 09:22:00,23.0,19.0,29.68,North,-999,-999.0,-999.0,84,-99.99,,,-99.99,,2013-03-21 15:22:00,
2013-03-21 09:30:00,23.0,20.0,29.70,North,-999,-999.0,-999.0,89,-99.99,,,-99.99,,2013-03-21 15:30:00,
2013-03-21 09:32:00,24.0,21.0,29.69,North,-999,-999.0,-999.0,87,-99.99,,,-99.99,,2013-03-21 15:32:00,
2013-03-21 09:42:00,24.0,21.0,29.69,North,-999,-999.0,-999.0,87,-99.99,,,-99.99,,2013-03-21 15:42:00,
2013-03-21 09:53:00,24.0,21.0,29.69,North,-999,-999.0,-999.0,88,-99.99,,,-99.99,,2013-03-21 15:53:00,
2013-03-21 10:03:00,23.0,20.0,29.70,North,-999,-999.0,-999.0,89,-99.99,,,-99.99,,2013-03-21 16:03:00,
2013-03-21 10:12:00,23.0,20.0,29.70,North,-999,-999.0,-999.0,89,-99.99,,,-99.99,,2013-03-21 16:12:00,
2013-03-21 10:22:00,23.0,20.0,29.70,North,-999,-999.0,-999.0,89,-99.99,,,-99.99,,2013-03-21 16:22:00,
2013-03-21 11:00:00,25.0,22.0,29.72,North,-999,-999.0,-999.0,90,-99.99,,,-99.99,,2013-03-21 17:00:00,
2013-03-21 11:23:00,24.0,22.0,29.72,North,-999,-999.0,-999.0,92,-99.99,,,-99.99,,2013-03-21 17:23:00,
2013-03-21 11:32:00,25.0,22.0,29.72,North,-999,-999.0,-999.0,90,-99.99,,,-99.99,,2013-03-21 17:32:00,
2013-03-21 11:42:00,25.0,22.0,29.72,North,-999,-999.0,-999.0,90,-99.99,,,-99.99,,2013-03-21 17:42:00,
2013-03-21 11:53:00,25.0,22.0,29.72,North,-999,-999.0,-999.0,90,-99.99,,,-99.99,,2013-03-21 17:53:00,
2013-03-21 14:12:00,25.0,18.0,29.75,North,-999,-999.0,-999.0,73,-99.99,,,-99.99,,2013-03-21 20:12:00,
2013-03-21 14:22:00,25.0,18.0,29.75,North,-999,-999.0,-999.0,73,-99.99,,,-99.99,,2013-03-21 20:22:00,
2013-03-21 14:33:00,25.0,18.0,29.75,North,-999,-999.0,-999.0,73,-99.99,,,-99.99,,2013-03-21 20:33:00,
2013-03-21 14:42:00,25.0,18.0,29.75,North,-999,-999.0,-999.0,73,-99.99,,,-99.99,,2013-03-21 20:42:00,
2013-03-21 14:53:00,25.0,17.0,29.75,North,-999,-999.0,-999.0,72,-99.99,,,-99.99,,2013-03-21 20:53:00,
2013-03-21 15:02:00,25.0,19.0,29.75,North,-999,-999.0,-999.0,78,-99.99,,,-99.99,,2013-03-21 21:02:00,
2013-03-21 15:12:00,25.0,19.0,29.75,North,-999,-999.0,-999.0,78,-99.99,,,-99.99,,2013-03-21 21:12:00,
2013-03-21 15:22:00,25.0,21.0,29.75,North,-999,-999.0,-999.0,84,-99.99,,,-99.99,,2013-03-21 21:22:00,
2013-03-21 15:32:00,25.0,21.0,29.75,North,-999,-999.0,-999.0,84,-99.99,,,-99.99,,2013-03-21 21:32:00,
2013-03-21 15:43:00,25.0,21.0,29.75,North,-999,-999.0,-999.0,84,-99.99,,,-99.99,,2013-03-21 21:43:00,
2013-03-21 15:53:00,26.0,21.0,29.75,North,-999,-999.0,-999.0,81,-99.99,,,-99.99,,2013-03-21 21:53:00,
2013-03-21 16:02:00,24.0,21.0,29.76,North,-999,-999.0,-999.0,88,-99.99,,,-99.99,,2013-03-21 22:02:00,
2013-03-21 16:12:00,24.0,21.0,29.76,North,-999,-999.0,-999.0,88,-99.99,,,-99.99,,2013-03-21 22:12:00,
2013-03-21 16:23:00,24.0,22.0,29.76,North,-999,-999.0,-999.0,90,-99.99,,,-99.99,,2013-03-21 22:23:00,
2013-03-21 16:33:00,24.0,21.0,29.76,North,-999,-999.0,-999.0,88,-99.99,,,-99.99,,2013-03-21 22:33:00,
2013-03-21 16:42:00,24.0,21.0,29.76,North,-999,-999.0,-999.0,88,-99.99,,,-99.99,,2013-03-21 22:42:00,
2013-03-21 16:52:00,24.0,21.0,29.76,North,-999,-999.0,-999.0,89,-99.99,,,-99.99,,2013-03-21 22:52:00,
2013-03-21 17:02:00,24.0,21.0,29.77,North,-999,-999.0,-999.0,89,-99.99,,,-99.99,,2013-03-21 23:02:00,
2013-03-21 17:12:00,24.0,21.0,29.77,North,-999,-999.0,-999.0,89,-99.99,,,-99.99,,2013-03-21 23:12:00,
2013-03-21 17:21:00,23.0,20.0,29.77,North,-999,-999.0,-999.0,88,-99.99,,,-99.99,,2013-03-21 23:21:00,
2013-03-21 17:32:00,24.0,20.0,29.77,North,-999,-999.0,-999.0,86,-99.99,,,-99.99,,2013-03-21 23:32:00,
2013-03-21 17:42:00,24.0,20.0,29.77,North,-999,-999.0,-999.0,86,-99.99,,,-99.99,,2013-03-21 23:42:00,
2013-03-21 17:53:00,23.0,19.0,29.78,North,-999,-999.0,-999.0,86,-99.99,,,-99.99,,2013-03-21 23:53:00,
2013-03-21 18:02:00,23.0,19.0,29.78,North,-999,-999.0,-999.0,86,-99.99,,,-99.99,,2013-03-22 00:02:00,
2013-03-21 18:12:00,23.0,19.0,29.78,North,-999,-999.0,-999.0,86,-99.99,,,-99.99,,2013-03-22 00:12:00,
2013-03-21 18:22:00,23.0,19.0,29.78,North,-999,-999.0,-999.0,86,-99.99,,,-99.99,,2013-03-22 00:22:00,
2013-03-21 18:31:00,23.0,19.0,29.78,North,-999,-999.0,-999.0,86,-99.99,,,-99.99,,2013-03-22 00:31:00,
2013-03-21 18:42:00,23.0,19.0,29.78,North,-999,-999.0,-999.0,86,-99.99,,,-99.99,,2013-03-22 00:42:00,
2013-03-21 18:52:00,22.0,18.0,29.79,North,-999,-999.0,-999.0,84,-99.99,,,-99.99,,2013-03-22 00:52:00,
2013-03-21 19:02:00,22.0,17.0,29.79,North,-999,-999.0,-999.0,82,-99.99,,,-99.99,,2013-03-22 01:02:00,
2013-03-21 19:12:00,22.0,17.0,29.79,North,-999,-999.0,-999.0,82,-99.99,,,-99.99,,2013-03-22 01:12:00,
2013-03-21 19:22:00,22.0,17.0,29.79,North,-999,-999.0,-999.0,81,-99.99,,,-99.99,,2013-03-22 01:22:00,
2013-03-21 19:32:00,21.0,17.0,29.79,North,-999,-999.0,-999.0,83,-99.99,,,-99.99,,2013-03-22 01:32:00,
2013-03-21 19:42:00,21.0,17.0,29.79,North,-999,-999.0,-999.0,83,-99.99,,,-99.99,,2013-03-22 01:42:00,
2013-03-21 19:53:00,20.0,16.0,29.80,North,-999,-999.0,-999.0,85,-99.99,,,-99.99,,2013-03-22 01:53:00,
2013-03-21 20:02:00,20.0,16.0,29.80,North,-999,-999.0,-999.0,84,-99.99,,,-99.99,,2013-03-22 02:02:00,
2013-03-21 20:12:00,20.0,16.0,29.80,North,-999,-999.0,-999.0,84,-99.99,,,-99.99,,2013-03-22 02:12:00,
2013-03-21 20:22:00,20.0,16.0,29.80,North,-999,-999.0,-999.0,83,-99.99,,,-99.99,,2013-03-22 02:22:00,
2013-03-21 20:32:00,20.0,16.0,29.80,North,-999,-999.0,-999.0,83,-99.99,,,-99.99,,2013-03-22 02:32:00,
2013-03-21 20:42:00,20.0,16.0,29.80,North,-999,-999.0,-999.0,83,-99.99,,,-99.99,,2013-03-22 02:42:00,
2013-03-21 20:52:00,20.0,15.0,29.80,North,-999,-999.0,-999.0,82,-99.99,,,-99.99,,2013-03-22 02:52:00,
2013-03-21 21:02:00,20.0,15.0,29.80,North,-999,-999.0,-999.0,81,-99.99,,,-99.99,,2013-03-22 03:02:00,
2013-03-21 21:12:00,20.0,15.0,29.80,North,-999,-999.0,-999.0,81,-99.99,,,-99.99,,2013-03-22 03:12:00,
2013-03-21 21:22:00,19.0,14.0,29.80,North,-999,-999.0,-999.0,81,-99.99,,,-99.99,,2013-03-22 03:22:00,
2013-03-21 21:33:00,19.0,14.0,29.80,North,-999,-999.0,-999.0,81,-99.99,,,-99.99,,2013-03-22 03:33:00,
2013-03-21 21:42:00,19.0,14.0,29.80,North,-999,-999.0,-999.0,81,-99.99,,,-99.99,,2013-03-22 03:42:00,
2013-03-21 21:53:00,19.0,14.0,29.80,North,-999,-999.0,-999.0,79,-99.99,,,-99.99,,2013-03-22 03:53:00,
2013-03-21 22:03:00,19.0,13.0,29.80,North,-999,-999.0,-999.0,77,-99.99,,,-99.99,,2013-03-22 04:03:00,
2013-03-21 22:12:00,19.0,13.0,29.80,North,-999,-999.0,-999.0,77,-99.99,,,-99.99,,2013-03-22 04:12:00,
2013-03-21 22:22:00,19.0,13.0,29.80,North,-999,-999.0,-999.0,77,-99.99,,,-99.99,,2013-03-22 04:22:00,
2013-03-21 22:32:00,19.0,13.0,29.80,North,-999,-999.0,-999.0,78,-99.99,,,-99.99,,2013-03-22 04:32:00,
2013-03-21 22:42:00,19.0,13.0,29.80,North,-999,-999.0,-999.0,78,-99.99,,,-99.99,,2013-03-22 04:42:00,
2013-03-21 22:52:00,18.0,13.0,29.81,North,-999,-999.0,-999.0,80,-99.99,,,-99.99,,2013-03-22 04:52:00,
2013-03-21 23:02:00,18.0,13.0,29.81,North,-999,-999.0,-999.0,82,-99.99,,,-99.99,,2013-03-22 05:02:00,
2013-03-21 23:12:00,18.0,13.0,29.81,North,-999,-999.0,-999.0,82,-99.99,,,-99.99,,2013-03-22 05:12:00,
2013-03-21 23:22:00,18.0,13.0,29.81,North,-999,-999.0,-999.0,82,-99.99,,,-99.99,,2013-03-22 05:22:00,
2013-03-21 23:32:00,18.0,12.0,29.81,North,-999,-999.0,-999.0,78,-99.99,,,-99.99,,2013-03-22 05:32:00,
2013-03-21 23:42:00,18.0,12.0,29.81,North,-999,-999.0,-999.0,78,-99.99,,,-99.99,,2013-03-22 05:42:00,
2013-03-21 23:52:00,18.0,12.0,29.80,North,-999,-999.0,-999.0,78,-99.99,,,-99.99,,2013-03-22 05:52:00,